Location: Waco, TX
(31.5480°N, 97.1670°W)
Time: 11:58:20
(UTC-05:00)

ISS - Pass Details

Date: 17 August 2018
Orbit: 401 x 409 km, 51.6° (Epoch: 19 August)

Event Time Altitude Azimuth Distance (km) Brightness Sun altitude
Rises 19:35:54 0° 291° (WNW) 2,313 2.3 6.2°
Reaches altitude 10° 19:39:01 10° 258° (WSW) 1,452 0.5 5.5°
Maximum altitude 19:40:20 12° 234° (SW) 1,337 -0.5 5.2°
Drops below altitude 10° 19:41:39 10° 210° (SSW) 1,450 -0.7 5.0°
Sets 19:44:45 0° 178° (S) 2,306 -0.2 4.3°
